Location: Asheville, NC
(35.6000°N, 82.5500°W)
Time: 16:14:03
(UTC-04:00)

ISS - Pass Details

Date: 10 May 2026
Orbit: 414 x 424 km, 51.6° (Epoch: 15 May)

Event Time Altitude Azimuth Distance (km) Brightness Sun altitude
Exits shadow 04:28:48 18° 129° (SE) 1,087 -1.6 -21.5°
Drops below altitude 10° 04:29:48 10° 130° (SE) 1,489 -0.9 -21.3°
Sets 04:31:54 0° 131° (SE) 2,351 0.1 -21.0°
